Weather in Oymyakon

Russia / Sakha (Yakutia) Republic     63°27′52″N   142°47′20″E
temp.,
°C
wind,
m/s
gust,
m/s
humid.,
%
clouds,
%
prec.,
mm/h
press.,
hPa
HPBL,
m
15 april, thu
thu1501:00−28n119597 0.0 10179
04:00−30nw11100100 0.0 10179
07:00−25wsw11100100 0.0 101560
10:00−21w1186100 0.0 1011180
13:00−17w1169100 0.0 1008329
16:00−14wsw1073100 0.1 1006392
19:00−14w1195100 0.1 10079
22:00−16nnw119897 0.3 10089
16 april, fri
fri1601:00−18n0198100 0.1 10099
04:00−18se119895 0.3 10099
07:00−16sse119499 0.1 101090
10:00−15wsw1180100 0.2 1009352
13:00−11w236588 0.0 1008759
16:00−8w466292 0.1 10081169
19:00−13sw117420 0.0 10109
22:00−20e118766 0.0 10149
17 april, sat
sat1701:00−24e11955 0.0 10169
04:00−27ese119994 0.0 10189
07:00−21ese229765 0.0 101679
10:00−16ese3382100 0.0 1012249
13:00−11ese3581100 0.0 1007414
16:00−4sse36646 0.0 1001812
19:00−8ese2281100 0.0 100111
22:00−14ese2285100 0.0 10059
18 april, sun
sun1801:00−17ese3290100 0.0 100610
04:00−18ese3294100 0.0 100612
07:00−13ese2387100 0.0 100592
10:00−8ese4677100 0.0 1004518
13:00−4se3571100 0.0 1004837
16:00−3sse2368100 0.0 1004812
19:00−6wnw3380100 1.0 100839
22:00−10se118898 1.0 101111
19 april, mon
mon1901:00−10nnw0197100 0.9 101315
04:00−18ne0110099 1.4 10189
07:00−13w1194100 0.2 1018100
10:00−10nw3386100 0.9 1019272
13:00−7nw446469 0.0 10201069
16:00−7nnw335513 0.0 10211011
19:00−11nne22742 0.0 102310
22:00−20ne218397 0.0 10289